Location: Ernsee
(50.8780°N, 12.0389°E)
Time: 11:03:34
(UTC+00:00)

Abrixas rocket - Pass Details

Date: 20 January 2020
Orbit: 352 x 361 km, 48.4° (Epoch: 27 February)

Event Time Altitude Azimuth Distance (km) Brightness Sun altitude
Exits shadow 06:00:13 12° 258° (WSW) 1,256 4.1 -9.9°
Maximum altitude 06:02:30 25° 203° (SSW) 777 3.6 -9.5°
Drops below altitude 10° 06:05:04 10° 145° (SE) 1,350 5.8 -9.2°
Sets 06:07:18 0° 132° (SE) 2,197 7.4 -8.8°
